When you browse on this site, cookies collect data to enhance your experience and personalize the content and advertising you see.
Visit our Privacy Policy to learn more. By continuing to use the site, you agree to this use of cookies and data.
  • In Switzerland
  • List of Countries
  • For 7 days
  • Water Temperature
  • Satellite Maps
  • Weather Map
  • Weather Widgets
  • user-avatar
    Login

    Hourly Weather Idzhewan

    Today, 25 April, Thursday

    Time Temperature Precipitation Wind Pressure Humidity
    00:00 +8°C° 0.2 mm 1 mps 699 mmHg 83%
    01:00 +7°C° 0 mm 1 mps 699 mmHg 85%
    02:00 +6°C° 0 mm 1 mps 699 mmHg 87%
    03:00 +6°C° 0 mm 1 mps 699 mmHg 88%
    04:00 +6°C° 0 mm 1 mps 699 mmHg 88%
    05:00 +6°C° 0 mm 1 mps 699 mmHg 87%
    06:00 +6°C° 0 mm 1 mps 700 mmHg 86%
    07:00 +8°C° 0 mm 1 mps 700 mmHg 79%
    08:00 +10°C° 0 mm 1 mps 699 mmHg 71%
    09:00 +11°C° 0 mm 1 mps 699 mmHg 64%
    10:00 +12°C° 0 mm 1 mps 699 mmHg 61%
    11:00 +13°C° 0 mm 2 mps 699 mmHg 57%
    12:00 +14°C° 0 mm 2 mps 699 mmHg 54%
    13:00 +15°C° 0.2 mm 2 mps 699 mmHg 53%
    14:00 +15°C° 0.2 mm 2 mps 698 mmHg 52%
    15:00 +15°C° 0.2 mm 2 mps 698 mmHg 51%
    16:00 +15°C° 0.1 mm 2 mps 698 mmHg 55%
    17:00 +14°C° 0.1 mm 2 mps 698 mmHg 59%
    18:00 +13°C° 0.1 mm 1 mps 698 mmHg 64%
    19:00 +12°C° 0 mm 1 mps 698 mmHg 66%
    20:00 +10°C° 0 mm 1 mps 698 mmHg 68%
    21:00 +8°C° 0 mm 1 mps 699 mmHg 71%
    22:00 +8°C° 0 mm 1 mps 699 mmHg 72%
    23:00 +8°C° 0 mm 1 mps 699 mmHg 73%

    Tomorrow, 26 April, Friday

    Time Temperature Precipitation Wind Pressure Humidity
    00:00 +7°C° 0 mm 1 mps 699 mmHg 74%
    01:00 +7°C° 0 mm 1 mps 699 mmHg 76%
    02:00 +6°C° 0 mm 1 mps 699 mmHg 77%
    03:00 +6°C° 0 mm 1 mps 699 mmHg 79%
    04:00 +6°C° 0 mm 1 mps 699 mmHg 78%
    05:00 +7°C° 0 mm 1 mps 699 mmHg 77%
    06:00 +7°C° 0 mm 1 mps 699 mmHg 76%
    07:00 +9°C° 0 mm 1 mps 699 mmHg 71%
    08:00 +10°C° 0 mm 2 mps 699 mmHg 66%
    09:00 +12°C° 0 mm 2 mps 699 mmHg 60%
    10:00 +13°C° 0 mm 2 mps 698 mmHg 58%
    11:00 +15°C° 0 mm 2 mps 698 mmHg 55%
    12:00 +16°C° 0 mm 3 mps 698 mmHg 52%
    13:00 +16°C° 0 mm 3 mps 697 mmHg 53%
    14:00 +16°C° 0 mm 3 mps 697 mmHg 53%
    15:00 +16°C° 0 mm 3 mps 696 mmHg 53%
    16:00 +15°C° 0.1 mm 2 mps 696 mmHg 58%
    17:00 +15°C° 0.1 mm 2 mps 696 mmHg 63%
    18:00 +14°C° 0.1 mm 2 mps 696 mmHg 67%
    19:00 +12°C° 0 mm 1 mps 696 mmHg 71%
    20:00 +11°C° 0 mm 1 mps 696 mmHg 75%
    21:00 +9°C° 0 mm 1 mps 697 mmHg 80%
    22:00 +9°C° 0 mm 1 mps 697 mmHg 81%
    23:00 +9°C° 0 mm 1 mps 697 mmHg 82%

    Day after tomorrow, 27 April, Saturday

    Time Temperature Precipitation Wind Pressure Humidity
    00:00 +8°C° 0 mm 1 mps 697 mmHg 83%
    01:00 +8°C° 0 mm 1 mps 697 mmHg 84%
    02:00 +8°C° 0 mm 1 mps 697 mmHg 85%
    03:00 +6°C° 0 mm 0 mps 697 mmHg 86%
    04:00 +8°C° 0 mm 1 mps 697 mmHg 85%
    05:00 +8°C° 0 mm 1 mps 697 mmHg 84%
    06:00 +8°C° 0 mm 1 mps 697 mmHg 84%
    07:00 +10°C° 0 mm 1 mps 696 mmHg 76%
    08:00 +12°C° 0 mm 1 mps 696 mmHg 69%
    09:00 +14°C° 0 mm 1 mps 696 mmHg 61%
    10:00 +15°C° 0 mm 2 mps 696 mmHg 58%
    11:00 +16°C° 0 mm 2 mps 696 mmHg 55%
    12:00 +17°C° 0 mm 2 mps 695 mmHg 52%
    13:00 +17°C° 0.5 mm 2 mps 695 mmHg 53%
    14:00 +17°C° 0.5 mm 3 mps 695 mmHg 54%
    15:00 +17°C° 0.5 mm 3 mps 694 mmHg 54%
    16:00 +16°C° 0.6 mm 2 mps 694 mmHg 61%
    17:00 +15°C° 0.6 mm 2 mps 694 mmHg 67%
    18:00 +14°C° 0.6 mm 1 mps 694 mmHg 73%
    19:00 +13°C° 0.1 mm 1 mps 694 mmHg 75%
    20:00 +12°C° 0.1 mm 1 mps 694 mmHg 77%
    21:00 +10°C° 0.1 mm 0 mps 694 mmHg 79%
    22:00 +10°C° 0 mm 1 mps 694 mmHg 80%
    23:00 +10°C° 0 mm 1 mps 694 mmHg 81%

    28 April, Sunday

    Time Temperature Precipitation Wind Pressure Humidity
    00:00 +9°C° 0 mm 1 mps 694 mmHg 81%
    01:00 +9°C° 0 mm 1 mps 694 mmHg 80%
    02:00 +8°C° 0 mm 1 mps 694 mmHg 79%
    03:00 +8°C° 0 mm 1 mps 694 mmHg 78%
    04:00 +8°C° 0 mm 1 mps 694 mmHg 75%
    05:00 +8°C° 0 mm 2 mps 693 mmHg 72%
    06:00 +8°C° 0 mm 2 mps 693 mmHg 70%
    07:00 +12°C° 0 mm 1 mps 693 mmHg 62%
    08:00 +14°C° 0 mm 1 mps 693 mmHg 55%
    09:00 +18°C° 0 mm 1 mps 693 mmHg 47%
    10:00 +18°C° 0 mm 2 mps 693 mmHg 45%
    11:00 +19°C° 0 mm 2 mps 693 mmHg 43%
    12:00 +20°C° 0 mm 2 mps 693 mmHg 42%
    13:00 +20°C° 0.1 mm 2 mps 692 mmHg 42%
    14:00 +20°C° 0.1 mm 2 mps 692 mmHg 41%
    15:00 +20°C° 0.1 mm 2 mps 692 mmHg 41%
    16:00 +20°C° 0 mm 2 mps 691 mmHg 47%
    17:00 +20°C° 0 mm 1 mps 691 mmHg 52%
    18:00 +19°C° 0 mm 1 mps 691 mmHg 58%
    19:00 +16°C° 0.1 mm 1 mps 692 mmHg 61%
    20:00 +15°C° 0.1 mm 2 mps 692 mmHg 64%
    21:00 +13°C° 0.1 mm 2 mps 692 mmHg 67%
    22:00 +13°C° 0 mm 2 mps 692 mmHg 67%
    23:00 +13°C° 0 mm 2 mps 692 mmHg 67%

    29 April, Monday

    Time Temperature Precipitation Wind Pressure Humidity
    00:00 +12°C° 0 mm 2 mps 692 mmHg 67%
    01:00 +12°C° 0 mm 2 mps 692 mmHg 67%
    02:00 +12°C° 0 mm 2 mps 692 mmHg 67%
    03:00 +12°C° 0 mm 2 mps 692 mmHg 67%
    04:00 +12°C° 0 mm 2 mps 692 mmHg 67%
    05:00 +12°C° 0 mm 2 mps 692 mmHg 67%
    06:00 +12°C° 0 mm 2 mps 692 mmHg 68%
    07:00 +14°C° 0 mm 2 mps 692 mmHg 62%
    08:00 +17°C° 0 mm 2 mps 693 mmHg 56%
    09:00 +20°C° 0 mm 1 mps 693 mmHg 50%
    10:00 +21°C° 0.1 mm 1 mps 693 mmHg 49%
    11:00 +21°C° 0.1 mm 2 mps 692 mmHg 48%
    12:00 +21°C° 0.1 mm 2 mps 692 mmHg 48%
    13:00 +21°C° 0.9 mm 2 mps 692 mmHg 51%
    14:00 +22°C° 0.9 mm 1 mps 691 mmHg 55%
    15:00 +21°C° 0.9 mm 1 mps 691 mmHg 58%
    16:00 +20°C° 1.3 mm 1 mps 691 mmHg 65%
    17:00 +19°C° 1.3 mm 1 mps 691 mmHg 72%
    18:00 +18°C° 1.3 mm 1 mps 691 mmHg 79%
    19:00 +16°C° 0.7 mm 1 mps 691 mmHg 80%
    20:00 +16°C° 0.7 mm 1 mps 692 mmHg 80%
    21:00 +15°C° 0.7 mm 1 mps 692 mmHg 80%
    22:00 +15°C° 0.6 mm 1 mps 692 mmHg 81%
    23:00 +15°C° 0.6 mm 1 mps 692 mmHg 83%

    30 April, Tuesday

    Time Temperature Precipitation Wind Pressure Humidity
    00:00 +15°C° 0.6 mm 1 mps 692 mmHg 84%
    01:00 +14°C° 0.4 mm 1 mps 692 mmHg 85%
    02:00 +13°C° 0.4 mm 0 mps 692 mmHg 85%
    03:00 +13°C° 0.4 mm 0 mps 692 mmHg 86%
    04:00 +12°C° 0.2 mm 0 mps 692 mmHg 86%
    05:00 +13°C° 0.2 mm 1 mps 693 mmHg 85%
    06:00 +13°C° 0.2 mm 1 mps 693 mmHg 84%
    07:00 +15°C° 0 mm 1 mps 693 mmHg 77%
    08:00 +18°C° 0 mm 1 mps 693 mmHg 69%
    09:00 +20°C° 0 mm 1 mps 693 mmHg 62%
    10:00 +21°C° 0 mm 1 mps 693 mmHg 58%
    11:00 +21°C° 0 mm 2 mps 693 mmHg 55%
    12:00 +23°C° 0 mm 2 mps 692 mmHg 52%
    13:00 +23°C° 0.3 mm 2 mps 692 mmHg 51%
    14:00 +24°C° 0.3 mm 2 mps 692 mmHg 50%
    15:00 +24°C° 0.3 mm 2 mps 691 mmHg 49%
    16:00 +23°C° 0.6 mm 2 mps 691 mmHg 55%
    17:00 +21°C° 0.6 mm 2 mps 691 mmHg 61%
    18:00 +21°C° 0.6 mm 1 mps 691 mmHg 68%
    19:00 +20°C° 0.3 mm 1 mps 691 mmHg 69%
    20:00 +18°C° 0.3 mm 1 mps 691 mmHg 71%
    21:00 +16°C° 0.3 mm 1 mps 692 mmHg 73%
    22:00 +15°C° 0.8 mm 1 mps 692 mmHg 74%
    23:00 +15°C° 0.8 mm 1 mps 692 mmHg 76%
    Show more